Location: *
(24.1434°N, 56.8729°E)
Time: 22:19:26
(UTC+00:00)

Aureole 2 Rocket - Pass Details

Date: 09 April 2020
Orbit: 307 x 440 km, 73.9° (Epoch: 23 May)

Event Time Altitude Azimuth Distance (km) Brightness Sun altitude
Rises 14:47:53 0° 355° (N) 2,409 6.3 -4.4°
Reaches altitude 10° 14:50:05 10° 4° (N) 1,521 5.2 -4.9°
Maximum altitude 14:53:12 36° 73° (ENE) 676 2.9 -5.6°
Drops below altitude 10° 14:56:11 10° 142° (SE) 1,451 4.5 -6.3°
Sets 14:58:15 0° 151° (SSE) 2,279 5.6 -6.7°
